📊 Raw Sensor Data
Showing records 44001 to 44025 of 85,028 total
| ID | Distance (ft) | Battery V | Battery A | Int Temp (°F) | Int Humid (%) | Ext Temp (°F) | Solar V | RSSI | SNR | Time Stamp |
|---|---|---|---|---|---|---|---|---|---|---|
| 41040 | 15.8 | 3.95 | 5 | 72 | 41 | 71 | 5.10 | -70 | 7 | 05/19/2025 09:00 AM |
| 41039 | 15.8 | 3.95 | 5 | 71 | 41 | 70 | 5.10 | -69 | 8 | 05/19/2025 08:45 AM |
| 41038 | 15.8 | 4.11 | 5 | 70 | 41 | 70 | 5.10 | -70 | 8 | 05/19/2025 08:30 AM |
| 41037 | 15.8 | 4.02 | 0 | 67 | 40 | 68 | 5.10 | -70 | 8 | 05/19/2025 08:00 AM |
| 41036 | 15.8 | 3.95 | 5 | 64 | 40 | 65 | 5.10 | -68 | 8 | 05/19/2025 07:45 AM |
| 41035 | 15.8 | 4.08 | 59 | 62 | 40 | 64 | 4.50 | -69 | 8 | 05/19/2025 07:30 AM |
| 41034 | 15.8 | 3.97 | 17 | 60 | 41 | 62 | 4.50 | -70 | 8 | 05/19/2025 07:15 AM |
| 41033 | 15.8 | 3.98 | 6 | 58 | 41 | 60 | 4.50 | -69 | 8 | 05/19/2025 07:00 AM |
| 41032 | 15.7 | 3.91 | 0 | 56 | 41 | 58 | 4.50 | -68 | 8 | 05/19/2025 06:45 AM |
| 41031 | 15.7 | 3.95 | 0 | 55 | 41 | 57 | 4.50 | -69 | 7 | 05/19/2025 06:30 AM |
| 41030 | 15.7 | 3.89 | 0 | 54 | 42 | 55 | 4.50 | -69 | 7 | 05/19/2025 06:15 AM |
| 41029 | 15.6 | 3.88 | -10 | 53 | 42 | 54 | 4.50 | -69 | 8 | 05/19/2025 06:00 AM |
| 41028 | 15.6 | 3.89 | -5 | 53 | 42 | 54 | 1.90 | -69 | 8 | 05/19/2025 05:45 AM |
| 41027 | 15.7 | 3.95 | -5 | 54 | 42 | 54 | 0.10 | -68 | 8 | 05/19/2025 05:30 AM |
| 41026 | 15.6 | 3.89 | -5 | 54 | 42 | 55 | 0.00 | -69 | 8 | 05/19/2025 05:15 AM |
| 41025 | 15.6 | 3.89 | -5 | 54 | 42 | 56 | 0.00 | -68 | 8 | 05/19/2025 05:00 AM |
| 41024 | 15.6 | 3.95 | -5 | 54 | 42 | 56 | 0.00 | -68 | 8 | 05/19/2025 04:45 AM |
| 41023 | 15.6 | 3.88 | -5 | 54 | 42 | 55 | 0.00 | -69 | 8 | 05/19/2025 04:30 AM |
| 41022 | 15.6 | 3.88 | -5 | 54 | 42 | 56 | 0.00 | -68 | 8 | 05/19/2025 04:15 AM |
| 41021 | 15.7 | 3.89 | -5 | 54 | 42 | 55 | 0.00 | -68 | 8 | 05/19/2025 04:00 AM |
| 41020 | 15.6 | 3.95 | -5 | 54 | 42 | 55 | 0.00 | -69 | 8 | 05/19/2025 03:45 AM |
| 41019 | 15.7 | 3.89 | -5 | 54 | 41 | 56 | 0.00 | -68 | 8 | 05/19/2025 03:30 AM |
| 41018 | 15.6 | 3.89 | -5 | 54 | 42 | 57 | 0.00 | -68 | 8 | 05/19/2025 03:15 AM |
| 41017 | 15.6 | 3.89 | -5 | 54 | 42 | 56 | 0.00 | -68 | 8 | 05/19/2025 03:00 AM |
| 41016 | 15.6 | 3.89 | -5 | 53 | 42 | 56 | 0.00 | -68 | 7 | 05/19/2025 02:45 AM |